Location: Ethel Rock
(53.4667°N, 4.5667°W)
Time: 00:30:00
(UTC+00:00)

Cosmos 1992 Rocket - Pass Details

Date: 24 October 2020
Orbit: 759 x 765 km, 74.0° (Epoch: 26 November)

Event Time Altitude Azimuth Distance (km) Brightness Sun altitude
Rises 06:04:04 0° 329° (NNW) 3,233 6.9 -9.3°
Reaches altitude 10° 06:06:33 10° 322° (NW) 2,303 6.1 -9.0°
Maximum altitude 06:11:22 39° 255° (WSW) 1,129 4.5 -8.2°
Drops below altitude 10° 06:16:11 10° 188° (S) 2,291 6.5 -7.5°
Sets 06:18:39 0° 180° (S) 3,213 7.4 -7.2°
